sat.trackr.live / text

‹ back to catalog

STARLINK-2569

NORAD 48277 · 2021-036B

PAYLOAD ACTIVE UNKNOWN

§ Identity

Operator
Country
US
Launch date
2021-04-29
Launch site
AFETR
Launch vehicle
Mass (kg)
RCS (m²)

Purposes: comms

External: N2YO · Heavens-Above · Gunter

§ Orbital elements

Epoch: 2026-05-25T01:26:25.682208Z

Period
94.14 min
Inclination
53.1262°
Eccentricity
0.0005122
Mean motion
15.29647716 rev/d
Perigee alt
473.4 km
Apogee alt
480.4 km
Semi-major
6,855.0 km
B*
1.2446e-3
RAAN
17.7217°
Arg perigee
111.3002°
Mean anomaly
248.8545°
Rev number
28,097

§ Raw data

STARLINK-25691 48277U 21036B   26145.06001947  .00036068  00000+0  12446-2 0  99962 48277  53.1262  17.7217 0005122 111.3002 248.8545 15.29647716280972

JSON: /api/v1/satellites/48277 · /tle

For live sub-satellite position, see the globe view (requires WebGL).

§ Visibility from observer

Set your observer location to see the next 7 days of passes ≥ 10°. The values pass through the URL so the page stays shareable.

No JS? Fill the form by hand. The geolocation button needs JavaScript.